When you browse on this site, cookies collect data to enhance your experience and personalize the content and advertising you see.
Visit our Privacy Policy to learn more. By continuing to use the site, you agree to this use of cookies and data.
  • In Belgien
  • Länderverzeichnis
  • Für 7 Tage
  • Wassertemperatur
  • Satellitenkarten
  • Wetterkarte
  • Widgets
  • user-avatar
    Anmelden

    Stündliche Wetter Shkoder

    Heute, 19 November, Montag

    Zeit Temperatur Niederschläge Wind Luftdruck Luftfeuchtigkeit
    00:00 +6°C° 0.2 mm 2 m/S 735 mmHg 84%
    01:00 +6°C° 0.2 mm 2 m/S 735 mmHg 84%
    02:00 +6°C° 0.2 mm 2 m/S 735 mmHg 84%
    03:00 +6°C° 0.2 mm 2 m/S 735 mmHg 85%
    04:00 +7°C° 0.2 mm 1 m/S 736 mmHg 85%
    05:00 +6°C° 0 mm 2 m/S 736 mmHg 85%
    06:00 +5°C° 0 mm 2 m/S 736 mmHg 86%
    07:00 +5°C° 0 mm 2 m/S 736 mmHg 86%
    08:00 +6°C° 0 mm 2 m/S 736 mmHg 82%
    09:00 +8°C° 0 mm 2 m/S 737 mmHg 78%
    10:00 +10°C° 0 mm 2 m/S 737 mmHg 74%
    11:00 +10°C° 0 mm 2 m/S 737 mmHg 70%
    12:00 +12°C° 0 mm 2 m/S 737 mmHg 67%
    13:00 +13°C° 0 mm 2 m/S 737 mmHg 64%
    14:00 +12°C° 0 mm 2 m/S 737 mmHg 67%
    15:00 +12°C° 0 mm 2 m/S 737 mmHg 69%
    16:00 +10°C° 0 mm 2 m/S 737 mmHg 72%
    17:00 +10°C° 0.2 mm 2 m/S 737 mmHg 73%
    18:00 +10°C° 0.2 mm 3 m/S 737 mmHg 74%
    19:00 +10°C° 0.2 mm 3 m/S 737 mmHg 75%
    20:00 +10°C° 0.4 mm 3 m/S 737 mmHg 77%
    21:00 +10°C° 0.4 mm 3 m/S 736 mmHg 78%
    22:00 +10°C° 0.4 mm 3 m/S 736 mmHg 79%
    23:00 +10°C° 1.8 mm 4 m/S 736 mmHg 82%

    Morgen, 20 November, Dienstag

    Zeit Temperatur Niederschläge Wind Luftdruck Luftfeuchtigkeit
    00:00 +10°C° 1.8 mm 4 m/S 736 mmHg 85%
    01:00 +10°C° 1.8 mm 4 m/S 736 mmHg 88%
    02:00 +10°C° 3.2 mm 4 m/S 736 mmHg 89%
    03:00 +10°C° 3.2 mm 4 m/S 735 mmHg 90%
    04:00 +10°C° 3.2 mm 4 m/S 735 mmHg 91%
    05:00 +10°C° 4.6 mm 4 m/S 735 mmHg 91%
    06:00 +10°C° 4.6 mm 4 m/S 735 mmHg 92%
    07:00 +10°C° 4.6 mm 4 m/S 735 mmHg 92%
    08:00 +11°C° 4.6 mm 4 m/S 735 mmHg 92%
    09:00 +11°C° 4.6 mm 4 m/S 735 mmHg 92%
    10:00 +11°C° 4.6 mm 4 m/S 735 mmHg 92%
    11:00 +11°C° 3.1 mm 4 m/S 735 mmHg 92%
    12:00 +12°C° 3.1 mm 4 m/S 735 mmHg 92%
    13:00 +12°C° 3.1 mm 4 m/S 735 mmHg 91%
    14:00 +12°C° 1.7 mm 4 m/S 735 mmHg 91%
    15:00 +12°C° 1.7 mm 4 m/S 735 mmHg 91%
    16:00 +12°C° 1.7 mm 4 m/S 734 mmHg 90%
    17:00 +12°C° 1.2 mm 4 m/S 735 mmHg 90%
    18:00 +12°C° 1.2 mm 4 m/S 735 mmHg 90%
    19:00 +12°C° 1.2 mm 4 m/S 735 mmHg 90%
    20:00 +12°C° 1.2 mm 4 m/S 735 mmHg 91%
    21:00 +12°C° 1.2 mm 3 m/S 735 mmHg 91%
    22:00 +12°C° 1.2 mm 3 m/S 735 mmHg 92%
    23:00 +12°C° 1.2 mm 3 m/S 734 mmHg 92%

    übermorgen, 21 November, Mittwoch

    Zeit Temperatur Niederschläge Wind Luftdruck Luftfeuchtigkeit
    00:00 +12°C° 1.2 mm 3 m/S 734 mmHg 92%
    01:00 +12°C° 1.2 mm 3 m/S 734 mmHg 92%
    02:00 +12°C° 1.6 mm 3 m/S 733 mmHg 92%
    03:00 +12°C° 1.6 mm 3 m/S 733 mmHg 92%
    04:00 +12°C° 1.6 mm 3 m/S 733 mmHg 93%
    05:00 +12°C° 1.9 mm 3 m/S 733 mmHg 92%
    06:00 +12°C° 1.9 mm 3 m/S 733 mmHg 92%
    07:00 +12°C° 1.9 mm 3 m/S 733 mmHg 92%
    08:00 +12°C° 1.1 mm 3 m/S 734 mmHg 91%
    09:00 +12°C° 1.1 mm 3 m/S 734 mmHg 90%
    10:00 +13°C° 1.1 mm 2 m/S 734 mmHg 89%
    11:00 +13°C° 1.3 mm 2 m/S 735 mmHg 88%
    12:00 +14°C° 1.3 mm 2 m/S 735 mmHg 88%
    13:00 +14°C° 1.3 mm 2 m/S 735 mmHg 87%
    14:00 +14°C° 1.1 mm 2 m/S 735 mmHg 88%
    15:00 +13°C° 1.1 mm 2 m/S 735 mmHg 90%
    16:00 +13°C° 1.1 mm 1 m/S 736 mmHg 91%
    17:00 +13°C° 0.6 mm 1 m/S 736 mmHg 91%
    18:00 +13°C° 0.6 mm 1 m/S 737 mmHg 92%
    19:00 +12°C° 0.6 mm 1 m/S 737 mmHg 93%
    20:00 +12°C° 0.3 mm 1 m/S 737 mmHg 93%
    21:00 +12°C° 0.3 mm 1 m/S 738 mmHg 93%
    22:00 +12°C° 0.3 mm 1 m/S 738 mmHg 93%
    23:00 +12°C° 0.2 mm 1 m/S 738 mmHg 92%

    22 November, Donnerstag

    Zeit Temperatur Niederschläge Wind Luftdruck Luftfeuchtigkeit
    00:00 +12°C° 0.2 mm 1 m/S 739 mmHg 92%
    01:00 +11°C° 0.2 mm 1 m/S 739 mmHg 92%
    02:00 +11°C° 0 mm 1 m/S 739 mmHg 92%
    03:00 +11°C° 0 mm 1 m/S 739 mmHg 91%
    04:00 +11°C° 0 mm 1 m/S 739 mmHg 91%
    05:00 +11°C° 0 mm 1 m/S 740 mmHg 90%
    06:00 +10°C° 0 mm 1 m/S 740 mmHg 90%
    07:00 +10°C° 0 mm 1 m/S 740 mmHg 89%
    08:00 +12°C° 0 mm 1 m/S 741 mmHg 85%
    09:00 +13°C° 0 mm 1 m/S 741 mmHg 81%
    10:00 +14°C° 0 mm 1 m/S 741 mmHg 77%
    11:00 +14°C° 0 mm 1 m/S 741 mmHg 76%
    12:00 +15°C° 0 mm 1 m/S 741 mmHg 75%
    13:00 +15°C° 0 mm 1 m/S 741 mmHg 74%
    14:00 +14°C° 0 mm 1 m/S 741 mmHg 78%
    15:00 +14°C° 0 mm 1 m/S 742 mmHg 82%
    16:00 +13°C° 0 mm 1 m/S 742 mmHg 86%
    17:00 +13°C° 0 mm 1 m/S 742 mmHg 87%
    18:00 +12°C° 0 mm 1 m/S 743 mmHg 88%
    19:00 +12°C° 0 mm 1 m/S 743 mmHg 90%
    20:00 +11°C° 0 mm 1 m/S 744 mmHg 89%
    21:00 +11°C° 0 mm 1 m/S 744 mmHg 89%
    22:00 +11°C° 0 mm 1 m/S 744 mmHg 88%
    23:00 +11°C° 0 mm 1 m/S 745 mmHg 88%

    23 November, Freitag

    Zeit Temperatur Niederschläge Wind Luftdruck Luftfeuchtigkeit
    00:00 +10°C° 0 mm 1 m/S 745 mmHg 87%
    01:00 +10°C° 0 mm 1 m/S 745 mmHg 86%
    02:00 +9°C° 0 mm 2 m/S 745 mmHg 86%
    03:00 +9°C° 0 mm 2 m/S 745 mmHg 85%
    04:00 +8°C° 0 mm 2 m/S 745 mmHg 85%
    05:00 +8°C° 0 mm 2 m/S 746 mmHg 85%
    06:00 +8°C° 0 mm 2 m/S 746 mmHg 85%
    07:00 +8°C° 0 mm 2 m/S 746 mmHg 85%
    08:00 +9°C° 0 mm 2 m/S 746 mmHg 80%
    09:00 +12°C° 0 mm 2 m/S 746 mmHg 74%
    10:00 +13°C° 0 mm 1 m/S 747 mmHg 69%
    11:00 +14°C° 0 mm 1 m/S 746 mmHg 66%
    12:00 +15°C° 0 mm 1 m/S 746 mmHg 63%
    13:00 +15°C° 0 mm 1 m/S 746 mmHg 61%
    14:00 +14°C° 0 mm 1 m/S 746 mmHg 65%
    15:00 +13°C° 0 mm 1 m/S 746 mmHg 69%
    16:00 +12°C° 0 mm 1 m/S 746 mmHg 72%
    17:00 +12°C° 0 mm 1 m/S 746 mmHg 74%
    18:00 +11°C° 0 mm 1 m/S 746 mmHg 76%
    19:00 +9°C° 0 mm 2 m/S 746 mmHg 78%
    20:00 +9°C° 0 mm 2 m/S 747 mmHg 78%
    21:00 +9°C° 0 mm 2 m/S 747 mmHg 77%
    22:00 +9°C° 0 mm 2 m/S 747 mmHg 77%
    23:00 +8°C° 0 mm 2 m/S 746 mmHg 76%

    24 November, Samstag

    Zeit Temperatur Niederschläge Wind Luftdruck Luftfeuchtigkeit
    00:00 +8°C° 0 mm 2 m/S 746 mmHg 75%
    01:00 +8°C° 0 mm 2 m/S 746 mmHg 75%
    02:00 +8°C° 0 mm 2 m/S 746 mmHg 74%
    03:00 +8°C° 0 mm 2 m/S 746 mmHg 73%
    04:00 +8°C° 0 mm 2 m/S 746 mmHg 72%
    05:00 +8°C° 0 mm 2 m/S 745 mmHg 71%
    06:00 +8°C° 0 mm 2 m/S 745 mmHg 70%
    07:00 +8°C° 0 mm 2 m/S 745 mmHg 68%
    08:00 +10°C° 0 mm 2 m/S 745 mmHg 64%
    09:00 +12°C° 0 mm 2 m/S 745 mmHg 60%
    10:00 +14°C° 0 mm 2 m/S 745 mmHg 56%
    11:00 +14°C° 0 mm 2 m/S 744 mmHg 57%
    12:00 +14°C° 0 mm 2 m/S 743 mmHg 58%
    13:00 +15°C° 0 mm 2 m/S 743 mmHg 59%
    14:00 +14°C° 0 mm 2 m/S 743 mmHg 63%
    15:00 +13°C° 0 mm 2 m/S 742 mmHg 67%
    16:00 +12°C° 0 mm 2 m/S 742 mmHg 70%
    17:00 +12°C° 0 mm 2 m/S 742 mmHg 70%
    18:00 +12°C° 0 mm 2 m/S 742 mmHg 69%
    19:00 +12°C° 0 mm 2 m/S 742 mmHg 69%
    20:00 +12°C° 0.1 mm 2 m/S 742 mmHg 71%
    21:00 +11°C° 0.1 mm 3 m/S 741 mmHg 73%
    22:00 +11°C° 0.1 mm 3 m/S 741 mmHg 75%
    23:00 +11°C° 0.4 mm 3 m/S 741 mmHg 76%
    Mehr zeigen